SCP
1 1 1 1 0 1 1 1 1 0 0 0 0 0 0 0 0 0 0 0 0 0 0 0 0 0 0 0 0 0 0 0 0 0 0 -0 -0 -0 0 -0 -0 -0 -0
1 1 1 2 2 1 1 0 0 0 0 0 0 0 0 0 0 0 0 1 0 0 0 0 0 0 0 0 0 0 0 0 0 0 0 -0 -0 0 -0 -0 -0 -0 -0
1 2 2 4 3 2 1 0 0 0 0 0 0 0 0 0 0 0 0 0 0 0 0 0 0 0 0 0 0 0 0 0 0 0 0 0 0 0 -0 0 -0 -0 0
2 3 3 5 4 1 1 0 0 0 0 0 0 0 0 0 0 0 0 0 0 0 0 0 0 0 0 0 0 0 0 0 0 0 0 0 0 0 0 0 0 0 0
1 1 2 1 1 1 0 0 0 0 0 0 0 0 0 0 0 0 0 0 0 0 0 0 0 0 0 0 0 0 0 0 0 0 0 0 0 0 0 0 0 0 0
0 0 0 0 0 0 0 0 0 0 0 0 0 0 0 0 0 0 0 0 0 0 0 0 0 0 0 0 0 0 0 0 0 0 0 0 0 0 0 0 0 0 0
0 0 0 0 0 -0 0 0 0 0 0 0 0 0 0 0 0 0 0 0 0 0 0 0 0 0 0 0 0 0 0 0 0 0 0 0 0 0 0 0 0 0 0
0 0 0 0 0 0 0 0 0 0 0 0 0 0 0 0 0 0 0 0 0 0 0 0 0 0 0 0 0 0 0 0 0 0 0 0 0 0 0 0 0 0 0
0 0 0 0 0 0 0 0 0 0 0 0 0 0 0 0 0 0 0 0 0 0 0 0 0 0 0 0 0 0 0 0 0 0 0 0 0 0 0 0 0 0 0
0 0 0 0 0 0 0 0 0 0 0 0 0 0 0 0 0 0 0 0 0 0 0 0 0 0 0 0 0 0 0 0 0 0 0 0 0 0 0 0 0 0 0
0 0 0 0 0 0 0 0 0 0 0 0 0 0 0 0 0 0 0 0 0 0 0 0 0 0 0 0 0 0 0 0 0 0 0 0 0 0 0 0 0 0 0
0 0 0 0 0 0 0 0 0 0 0 0 0 0 0 0 0 0 0 0 0 0 0 0 0 0 0 0 0 0 0 0 0 0 0 0 0 0 0 0 0 0 0
0 0 0 0 0 0 0 0 0 0 0 0 0 0 0 0 0 0 0 0 0 0 0 0 0 0 0 0 0 0 0 0 0 0 0 0 0 0 0 0 0 0 0
0 0 0 0 0 0 0 0 0 0 0 0 0 0 0 0 0 0 0 0 0 0 0 0 0 0 0 0 0 0 0 0 0 0 0 0 0 0 0 0 0 0 0
0 0 0 0 0 0 0 0 0 0 0 0 0 0 0 0 0 0 0 0 0 0 0 0 0 0 0 0 0 0 0 0 0 0 0 0 0 0 0 0 0 0 0
0 0 0 0 0 0 0 0 0 0 0 0 -0 0 0 0 0 0 0 0 0 0 0 0 0 0 0 0 0 0 0 0 0 0 0 0 0 0 0 0 0 0 0
0 0 0 0 0 0 0 0 0 0 0 0 0 0 -0 0 0 0 0 0 0 0 0 0 0 0 0 0 0 0 0 0 0 0 0 0 0 0 0 0 0 0 0
0 0 0 0 0 -0 0 -0 -0 -0 -0 -0 -0 -0 0 0 0 0 0 0 0 0 0 0 0 0 0 0 0 0 0 0 0 0 0 0 0 0 0 0 0 0 0
-0 -0 -0 -0 -0 0 0 0 0 0 0 0 0 0 -0 0 0 0 0 0 0 0 0 0 0 0 0 0 0 0 0 0 0 0 0 0 0 0 0 0 0 0 0
0 0 0 0 0 0 0 0 0 0 0 0 0 0 0 0 0 0 0 0 0 0 0 0 0 0 0 0 0 0 0 0 0 0 0 0 0 0 0 0 0 0 0
0 0 0 0 0 0 0 0 0 0 0 0 0 0 0 0 0 0 0 0 0 0 0 0 0 0 0 0 0 0 0 0 0 0 0 0 0 0 0 -0 -0 0 0
0 0 0 0 0 0 0 0 0 0 0 0 0 0 0 0 0 0 0 0 0 0 0 0 0 0 0 0 0 0 0 0 0 0 0 0 0 0 0 0 0 0 0
0 0 0 0 0 0 0 0 0 0 0 0 0 0 0 0 0 0 0 0 0 0 0 0 0 0 0 0 0 0 0 0 0 0 0 0 0 0 0 0 0 0 0
0 0 0 0 0 0 0 0 0 0 0 0 0 0 0 0 0 0 0 0 0 0 0 0 0 0 0 0 0 0 0 0 0 0 0 0 0 0 0 0 0 0 0
0 0 0 0 0 0 0 0 0 0 0 0 0 0 0 0 0 0 0 0 0 0 0 0 0 0 0 0 0 0 0 0 0 0 0 0 0 0 0 0 0 0 0
0 0 0 0 0 0 0 0 0 0 0 0 0 0 0 0 0 0 0 0 0 0 0 0 0 0 0 0 0 0 0 0 0 0 0 0 0 0 0 0 0 0 0
Wind_Speed_500mb
86 79 77 67 72 68 62 62 59 54 50 62 61 58 60 63 62 58 55 51 44 39 37 36 34 34 30 35 36 30 24 31 37 37 31 26 44 42 31 42 45 46 42
73 87 91 83 76 75 65 65 63 55 52 66 72 82 65 61 61 61 54 44 43 37 36 38 40 38 34 37 34 36 28 34 49 51 45 41 48 46 46 47 54 55 47
59 73 86 89 81 76 64 56 58 53 55 64 61 59 52 51 51 57 46 38 35 37 35 37 33 33 29 28 21 23 23 22 31 42 41 42 48 49 44 42 46 48 47
59 66 66 82 74 61 56 54 45 35 62 42 26 18 13 15 28 49 27 19 31 38 30 29 31 31 26 26 27 23 38 35 33 35 29 30 33 34 37 39 39 36 40
41 50 58 66 57 56 47 32 32 38 32 9 1 4 8 6 3 17 22 13 14 19 23 23 17 18 21 28 28 26 37 26 22 27 28 29 30 33 34 36 43 44 44
37 35 48 54 40 7 34 29 37 27 13 9 9 9 11 9 11 14 19 22 15 16 17 18 21 17 19 22 19 18 23 21 21 19 20 23 25 26 32 37 39 38 41
22 30 39 38 32 67 64 58 57 26 17 12 8 9 7 8 7 7 15 19 22 21 20 16 20 22 17 19 17 19 22 21 22 22 24 25 27 29 36 40 40 47 48
21 30 39 37 36 55 69 56 42 32 25 15 16 22 17 18 18 12 8 7 5 8 17 23 26 25 25 26 27 28 28 27 26 26 27 27 28 29 35 41 50 51 55
33 29 30 32 40 54 57 47 39 33 29 23 23 22 17 20 19 14 10 9 10 13 15 16 17 18 20 24 27 28 30 30 33 33 34 38 41 45 48 50 49 46 57
43 40 44 48 44 43 44 47 44 34 28 26 26 23 20 17 19 18 16 12 9 8 9 12 12 13 15 18 22 25 27 28 32 33 34 35 35 31 30 33 34 40 43
38 47 46 45 39 43 47 42 40 33 32 31 33 31 27 24 27 23 21 17 19 17 7 4 11 16 20 25 26 27 26 24 22 21 19 18 20 19 17 18 19 21 22
50 53 48 49 49 42 40 36 35 36 33 34 36 37 30 25 19 14 14 12 8 7 8 12 15 16 17 15 15 13 9 7 3 3 8 14 20 25 27 29 30 33 35
65 57 55 52 48 41 38 35 33 34 33 32 28 31 31 23 16 9 4 9 10 8 8 9 12 14 17 12 7 3 9 12 14 19 24 29 33 37 43 49 48 51 54
76 66 63 59 53 48 42 38 35 34 31 29 29 30 29 23 15 7 3 1 5 9 8 10 12 8 9 12 12 16 24 30 38 41 40 40 40 39 41 42 46 47 50
58 60 56 61 59 53 44 38 31 32 21 25 24 23 22 21 16 13 10 9 9 6 7 8 7 6 10 17 25 31 38 44 47 42 39 36 36 40 41 44 49 48 42
62 62 61 60 58 56 50 46 38 34 35 32 32 29 22 15 16 11 8 6 3 1 3 11 11 11 17 25 34 38 43 42 35 34 35 38 41 40 40 42 46 44 41
57 56 55 46 45 46 41 36 35 34 33 32 26 24 19 19 15 12 7 4 8 11 14 12 16 18 22 32 39 39 38 31 32 32 34 40 34 31 36 40 36 36 37
47 41 40 38 39 37 32 32 27 24 25 24 18 14 14 15 14 8 6 9 11 13 18 16 19 21 25 37 35 33 30 29 29 31 35 34 32 31 31 34 32 32 30
42 37 36 35 34 27 28 27 22 23 21 17 11 6 11 15 14 13 14 20 19 19 18 21 22 24 34 37 24 22 20 21 24 27 27 25 24 26 26 26 24 22 22
34 29 31 28 25 23 20 16 12 7 2 4 6 3 4 9 12 15 18 17 18 18 18 21 21 28 41 30 18 18 17 16 19 19 18 18 19 22 23 22 20 18 21
17 17 16 15 14 9 3 4 7 10 13 13 15 12 15 18 19 22 23 25 20 19 22 21 25 31 35 20 16 14 15 16 16 16 16 16 15 18 20 22 21 21 27
17 20 18 15 12 6 2 5 11 12 11 12 15 19 23 21 19 21 25 28 24 20 18 25 26 31 30 23 21 18 18 17 17 17 18 20 22 23 24 27 29 30 32
13 13 13 10 10 9 11 9 3 5 8 13 14 10 7 11 15 17 19 16 20 20 23 23 24 27 28 27 26 23 18 16 18 21 22 24 25 26 28 30 32 34 32
12 10 16 12 5 7 14 9 6 2 1 1 5 7 9 5 6 14 19 21 27 29 26 24 26 26 25 28 29 27 22 19 21 25 30 32 33 34 35 37 37 37 37
7 3 7 7 7 8 9 5 5 6 9 10 11 8 5 6 9 15 19 21 20 21 20 25 31 33 34 32 34 31 28 29 31 31 33 35 36 37 38 40 41 43 43
4 8 11 11 11 12 12 9 8 13 18 17 17 20 18 19 22 26 26 29 34 36 36 37 38 41 43 42 39 39 38 38 40 41 44 43 42 43 44 45 46 49 50
Wind_Direction_500mb
238 243 245 245 243 242 240 237 237 241 254 262 257 280 276 255 255 260 255 236 247 248 245 252 263 266 257 246 241 239 208 210 231 221 202 192 202 224 258 248 257 268 264
245 243 241 247 242 242 241 239 237 233 246 257 257 277 281 262 255 250 237 249 235 239 251 255 259 260 258 254 258 240 201 208 223 226 218 215 227 242 266 258 246 256 259
246 243 246 246 246 244 239 236 238 231 244 251 276 287 287 270 257 249 241 231 243 248 250 248 248 247 244 242 255 263 223 219 237 243 227 229 239 251 250 255 262 259 255
261 252 243 247 245 239 233 231 216 254 269 272 273 288 285 32 195 207 204 204 266 254 244 239 239 237 233 228 234 243 255 238 228 233 234 234 238 243 247 257 270 275 263
260 248 243 240 234 220 220 210 255 238 228 263 101 151 117 143 168 185 190 153 288 288 293 294 304 248 242 242 246 242 239 222 227 243 245 246 248 252 253 258 262 266 266
299 259 234 210 202 74 305 273 251 200 209 183 171 172 181 183 215 238 248 242 273 274 288 267 269 274 264 258 248 237 252 247 248 249 252 254 257 262 262 269 274 273 278
282 245 210 203 209 311 260 232 205 202 194 176 150 163 145 137 177 231 249 250 247 236 229 249 258 231 227 228 231 225 233 244 253 261 265 270 277 280 281 281 284 284 279
217 213 213 228 231 204 209 204 197 190 178 155 123 107 104 115 123 134 156 175 208 200 190 217 232 234 235 239 241 244 249 253 257 263 269 270 280 279 280 283 281 282 279
219 206 190 188 185 184 184 179 183 181 169 151 132 115 121 121 116 121 141 168 183 197 206 225 243 251 254 254 254 253 254 254 259 266 271 277 278 276 280 279 282 285 283
234 212 187 177 176 190 184 178 168 167 157 158 136 136 138 131 120 120 131 162 183 201 230 231 241 261 264 258 258 265 267 266 266 266 266 266 270 273 277 286 288 283 284
240 201 182 176 173 180 174 170 156 152 159 145 143 140 131 125 119 111 106 106 118 122 137 264 278 276 271 274 279 282 285 286 284 283 283 278 274 272 277 291 302 302 289
224 198 187 166 165 181 171 159 148 150 159 152 148 139 141 133 122 113 105 96 65 11 319 312 310 305 301 303 306 324 335 28 22 288 294 285 285 287 289 288 288 293 289
204 189 168 160 157 171 162 148 150 159 156 152 147 147 150 146 136 120 83 352 342 348 343 355 9 20 26 39 64 63 12 351 336 323 312 310 310 309 305 301 296 290 281
184 168 166 156 163 158 142 134 144 151 154 145 149 148 145 142 149 172 260 228 31 9 26 18 43 51 52 46 13 348 335 328 326 317 305 300 300 301 304 302 301 298 290
161 159 159 152 148 141 133 136 142 132 139 142 135 127 126 134 134 126 128 104 61 69 60 14 336 338 343 344 339 330 321 315 313 307 303 299 302 302 299 298 299 297 295
156 154 150 145 136 137 139 131 128 119 116 117 112 102 107 118 114 114 128 113 59 66 324 359 3 342 338 336 332 324 320 316 309 304 304 309 314 313 310 308 303 296 291
140 147 142 139 140 143 142 140 136 133 137 137 127 122 128 146 132 130 127 225 263 273 263 294 327 333 323 324 324 321 319 310 305 305 310 309 309 313 317 319 321 316 308
132 133 127 139 151 139 120 122 119 125 130 139 130 146 173 179 195 212 240 286 280 270 249 276 305 300 304 320 318 322 319 308 300 300 302 303 302 304 306 311 314 316 318
144 143 142 145 142 127 122 123 117 119 116 121 151 152 224 223 229 243 268 291 279 275 270 296 305 297 316 319 319 330 333 325 317 318 313 307 306 308 312 318 323 329 333
119 120 143 142 139 129 116 106 97 117 119 286 270 335 304 265 273 276 293 302 286 282 290 305 298 311 322 315 319 332 336 328 320 323 317 313 321 323 323 322 325 331 339
133 133 135 131 128 130 125 249 258 251 263 271 281 295 306 303 297 289 288 299 279 275 292 305 295 312 323 316 320 341 355 347 338 334 330 324 325 328 329 330 327 323 323
107 110 110 97 79 58 356 308 294 283 246 255 276 291 289 276 276 277 283 277 282 281 291 291 297 318 326 323 326 315 329 336 339 336 332 326 320 316 312 312 315 317 322
98 105 81 29 7 24 357 10 299 233 277 294 303 276 247 273 269 261 288 276 281 286 296 277 298 316 326 329 320 314 311 324 334 337 338 336 335 335 333 330 328 323 321
56 49 51 49 70 43 36 46 65 82 152 57 43 11 278 304 302 272 284 290 294 297 292 276 290 310 315 324 310 296 294 304 316 323 324 326 328 328 326 326 327 325 320
27 4 12 351 320 323 333 357 356 325 318 308 293 305 301 344 331 294 291 294 302 297 293 288 285 293 299 297 306 288 282 287 294 302 308 312 316 319 319 316 315 317 317
357 2 342 313 322 321 314 309 301 304 307 293 282 284 293 291 290 288 293 293 296 290 288 287 283 286 290 285 290 300 285 281 288 295 293 294 302 309 312 313 312 310 312
Wind_Speed_850mb
86 79 77 67 72 68 62 62 59 54 50 62 61 58 60 63 62 58 55 51 44 39 37 36 34 34 30 35 36 30 24 31 37 37 31 26 44 42 31 42 45 46 42
73 87 91 83 76 75 65 65 63 55 52 66 72 82 65 61 61 61 54 44 43 37 36 38 40 38 34 37 34 36 28 34 49 51 45 41 48 46 46 47 54 55 47
59 73 86 89 81 76 64 56 58 53 55 64 61 59 52 51 51 57 46 38 35 37 35 37 33 33 29 28 21 23 23 22 31 42 41 42 48 49 44 42 46 48 47
59 66 66 82 74 61 56 54 45 35 62 42 26 18 13 15 28 49 27 19 31 38 30 29 31 31 26 26 27 23 38 35 33 35 29 30 33 34 37 39 39 36 40
41 50 58 66 57 56 47 32 32 38 32 9 1 4 8 6 3 17 22 13 14 19 23 23 17 18 21 28 28 26 37 26 22 27 28 29 30 33 34 36 43 44 44
37 35 48 54 40 7 34 29 37 27 13 9 9 9 11 9 11 14 19 22 15 16 17 18 21 17 19 22 19 18 23 21 21 19 20 23 25 26 32 37 39 38 41
22 30 39 38 32 67 64 58 57 26 17 12 8 9 7 8 7 7 15 19 22 21 20 16 20 22 17 19 17 19 22 21 22 22 24 25 27 29 36 40 40 47 48
21 30 39 37 36 55 69 56 42 32 25 15 16 22 17 18 18 12 8 7 5 8 17 23 26 25 25 26 27 28 28 27 26 26 27 27 28 29 35 41 50 51 55
33 29 30 32 40 54 57 47 39 33 29 23 23 22 17 20 19 14 10 9 10 13 15 16 17 18 20 24 27 28 30 30 33 33 34 38 41 45 48 50 49 46 57
43 40 44 48 44 43 44 47 44 34 28 26 26 23 20 17 19 18 16 12 9 8 9 12 12 13 15 18 22 25 27 28 32 33 34 35 35 31 30 33 34 40 43
38 47 46 45 39 43 47 42 40 33 32 31 33 31 27 24 27 23 21 17 19 17 7 4 11 16 20 25 26 27 26 24 22 21 19 18 20 19 17 18 19 21 22
50 53 48 49 49 42 40 36 35 36 33 34 36 37 30 25 19 14 14 12 8 7 8 12 15 16 17 15 15 13 9 7 3 3 8 14 20 25 27 29 30 33 35
65 57 55 52 48 41 38 35 33 34 33 32 28 31 31 23 16 9 4 9 10 8 8 9 12 14 17 12 7 3 9 12 14 19 24 29 33 37 43 49 48 51 54
76 66 63 59 53 48 42 38 35 34 31 29 29 30 29 23 15 7 3 1 5 9 8 10 12 8 9 12 12 16 24 30 38 41 40 40 40 39 41 42 46 47 50
58 60 56 61 59 53 44 38 31 32 21 25 24 23 22 21 16 13 10 9 9 6 7 8 7 6 10 17 25 31 38 44 47 42 39 36 36 40 41 44 49 48 42
62 62 61 60 58 56 50 46 38 34 35 32 32 29 22 15 16 11 8 6 3 1 3 11 11 11 17 25 34 38 43 42 35 34 35 38 41 40 40 42 46 44 41
57 56 55 46 45 46 41 36 35 34 33 32 26 24 19 19 15 12 7 4 8 11 14 12 16 18 22 32 39 39 38 31 32 32 34 40 34 31 36 40 36 36 37
47 41 40 38 39 37 32 32 27 24 25 24 18 14 14 15 14 8 6 9 11 13 18 16 19 21 25 37 35 33 30 29 29 31 35 34 32 31 31 34 32 32 30
42 37 36 35 34 27 28 27 22 23 21 17 11 6 11 15 14 13 14 20 19 19 18 21 22 24 34 37 24 22 20 21 24 27 27 25 24 26 26 26 24 22 22
34 29 31 28 25 23 20 16 12 7 2 4 6 3 4 9 12 15 18 17 18 18 18 21 21 28 41 30 18 18 17 16 19 19 18 18 19 22 23 22 20 18 21
17 17 16 15 14 9 3 4 7 10 13 13 15 12 15 18 19 22 23 25 20 19 22 21 25 31 35 20 16 14 15 16 16 16 16 16 15 18 20 22 21 21 27
17 20 18 15 12 6 2 5 11 12 11 12 15 19 23 21 19 21 25 28 24 20 18 25 26 31 30 23 21 18 18 17 17 17 18 20 22 23 24 27 29 30 32
13 13 13 10 10 9 11 9 3 5 8 13 14 10 7 11 15 17 19 16 20 20 23 23 24 27 28 27 26 23 18 16 18 21 22 24 25 26 28 30 32 34 32
12 10 16 12 5 7 14 9 6 2 1 1 5 7 9 5 6 14 19 21 27 29 26 24 26 26 25 28 29 27 22 19 21 25 30 32 33 34 35 37 37 37 37
7 3 7 7 7 8 9 5 5 6 9 10 11 8 5 6 9 15 19 21 20 21 20 25 31 33 34 32 34 31 28 29 31 31 33 35 36 37 38 40 41 43 43
4 8 11 11 11 12 12 9 8 13 18 17 17 20 18 19 22 26 26 29 34 36 36 37 38 41 43 42 39 39 38 38 40 41 44 43 42 43 44 45 46 49 50
Wind_Direction_850mb
238 243 245 245 243 242 240 237 237 241 254 262 257 280 276 255 255 260 255 236 247 248 245 252 263 266 257 246 241 239 208 210 231 221 202 192 202 224 258 248 257 268 264
245 243 241 247 242 242 241 239 237 233 246 257 257 277 281 262 255 250 237 249 235 239 251 255 259 260 258 254 258 240 201 208 223 226 218 215 227 242 266 258 246 256 259
246 243 246 246 246 244 239 236 238 231 244 251 276 287 287 270 257 249 241 231 243 248 250 248 248 247 244 242 255 263 223 219 237 243 227 229 239 251 250 255 262 259 255
261 252 243 247 245 239 233 231 216 254 269 272 273 288 285 32 195 207 204 204 266 254 244 239 239 237 233 228 234 243 255 238 228 233 234 234 238 243 247 257 270 275 263
260 248 243 240 234 220 220 210 255 238 228 263 101 151 117 143 168 185 190 153 288 288 293 294 304 248 242 242 246 242 239 222 227 243 245 246 248 252 253 258 262 266 266
299 259 234 210 202 74 305 273 251 200 209 183 171 172 181 183 215 238 248 242 273 274 288 267 269 274 264 258 248 237 252 247 248 249 252 254 257 262 262 269 274 273 278
282 245 210 203 209 311 260 232 205 202 194 176 150 163 145 137 177 231 249 250 247 236 229 249 258 231 227 228 231 225 233 244 253 261 265 270 277 280 281 281 284 284 279
217 213 213 228 231 204 209 204 197 190 178 155 123 107 104 115 123 134 156 175 208 200 190 217 232 234 235 239 241 244 249 253 257 263 269 270 280 279 280 283 281 282 279
219 206 190 188 185 184 184 179 183 181 169 151 132 115 121 121 116 121 141 168 183 197 206 225 243 251 254 254 254 253 254 254 259 266 271 277 278 276 280 279 282 285 283
234 212 187 177 176 190 184 178 168 167 157 158 136 136 138 131 120 120 131 162 183 201 230 231 241 261 264 258 258 265 267 266 266 266 266 266 270 273 277 286 288 283 284
240 201 182 176 173 180 174 170 156 152 159 145 143 140 131 125 119 111 106 106 118 122 137 264 278 276 271 274 279 282 285 286 284 283 283 278 274 272 277 291 302 302 289
224 198 187 166 165 181 171 159 148 150 159 152 148 139 141 133 122 113 105 96 65 11 319 312 310 305 301 303 306 324 335 28 22 288 294 285 285 287 289 288 288 293 289
204 189 168 160 157 171 162 148 150 159 156 152 147 147 150 146 136 120 83 352 342 348 343 355 9 20 26 39 64 63 12 351 336 323 312 310 310 309 305 301 296 290 281
184 168 166 156 163 158 142 134 144 151 154 145 149 148 145 142 149 172 260 228 31 9 26 18 43 51 52 46 13 348 335 328 326 317 305 300 300 301 304 302 301 298 290
161 159 159 152 148 141 133 136 142 132 139 142 135 127 126 134 134 126 128 104 61 69 60 14 336 338 343 344 339 330 321 315 313 307 303 299 302 302 299 298 299 297 295
156 154 150 145 136 137 139 131 128 119 116 117 112 102 107 118 114 114 128 113 59 66 324 359 3 342 338 336 332 324 320 316 309 304 304 309 314 313 310 308 303 296 291
140 147 142 139 140 143 142 140 136 133 137 137 127 122 128 146 132 130 127 225 263 273 263 294 327 333 323 324 324 321 319 310 305 305 310 309 309 313 317 319 321 316 308
132 133 127 139 151 139 120 122 119 125 130 139 130 146 173 179 195 212 240 286 280 270 249 276 305 300 304 320 318 322 319 308 300 300 302 303 302 304 306 311 314 316 318
144 143 142 145 142 127 122 123 117 119 116 121 151 152 224 223 229 243 268 291 279 275 270 296 305 297 316 319 319 330 333 325 317 318 313 307 306 308 312 318 323 329 333
119 120 143 142 139 129 116 106 97 117 119 286 270 335 304 265 273 276 293 302 286 282 290 305 298 311 322 315 319 332 336 328 320 323 317 313 321 323 323 322 325 331 339
133 133 135 131 128 130 125 249 258 251 263 271 281 295 306 303 297 289 288 299 279 275 292 305 295 312 323 316 320 341 355 347 338 334 330 324 325 328 329 330 327 323 323
107 110 110 97 79 58 356 308 294 283 246 255 276 291 289 276 276 277 283 277 282 281 291 291 297 318 326 323 326 315 329 336 339 336 332 326 320 316 312 312 315 317 322
98 105 81 29 7 24 357 10 299 233 277 294 303 276 247 273 269 261 288 276 281 286 296 277 298 316 326 329 320 314 311 324 334 337 338 336 335 335 333 330 328 323 321
56 49 51 49 70 43 36 46 65 82 152 57 43 11 278 304 302 272 284 290 294 297 292 276 290 310 315 324 310 296 294 304 316 323 324 326 328 328 326 326 327 325 320
27 4 12 351 320 323 333 357 356 325 318 308 293 305 301 344 331 294 291 294 302 297 293 288 285 293 299 297 306 288 282 287 294 302 308 312 316 319 319 316 315 317 317
357 2 342 313 322 321 314 309 301 304 307 293 282 284 293 291 290 288 293 293 296 290 288 287 283 286 290 285 290 300 285 281 288 295 293 294 302 309 312 313 312 310 312